#�ϑ�����,���ϕ���,���ϕ���,�ő啗��,�ő啗����������,�ő�u�ԕ���,�ő�u�ԕ�����������
#(�N����),(m/s)   ,(16����),(m/s)   ,(16����)        ,(m/s)       ,(16����)            
2015/2/28 0:01,3.5,15,3.6,14,6,1
2015/2/28 0:02,3.5,15,3.5,14,9,14
2015/2/28 0:03,3.4,15,3.6,14,6.9,15
2015/2/28 0:04,3.5,15,3.5,14,6.9,15
2015/2/28 0:05,3.7,15,3.7,14,8.6,16
2015/2/28 0:06,4,15,4,14,7.8,14
2015/2/28 0:07,4.1,15,4.3,15,7.5,16
2015/2/28 0:08,4,15,4.1,15,11.9,16
2015/2/28 0:09,4.3,15,4.3,15,11.4,14
2015/2/28 0:10,4.3,15,4.3,15,5.1,16
2015/2/28 0:11,4.5,15,4.5,15,8.1,11
2015/2/28 0:12,4.7,15,4.7,15,9.5,13
2015/2/28 0:13,4.8,15,4.8,15,9.5,15
2015/2/28 0:14,4.8,15,4.8,15,10.7,16
2015/2/28 0:15,4.7,15,4.8,15,7.4,1
2015/2/28 0:16,4.6,15,4.6,15,8.3,15
2015/2/28 0:17,4.6,15,4.6,15,6.2,14
2015/2/28 0:18,4.3,15,4.6,15,6.9,13
2015/2/28 0:19,4.2,15,4.2,15,8.7,1
2015/2/28 0:20,4.3,15,4.3,15,6.7,2
2015/2/28 0:21,4.2,15,4.3,15,5.7,2
2015/2/28 0:22,3.9,15,4.1,15,6,15
2015/2/28 0:23,3.5,15,3.9,15,4.3,15
2015/2/28 0:24,3.3,15,3.5,15,2.6,13
2015/2/28 0:25,3,14,3.3,15,2.1,10
2015/2/28 0:26,2.7,14,3,15,2.7,8
2015/2/28 0:27,2.4,14,2.7,15,3.1,15
2015/2/28 0:28,2.4,14,2.5,15,3.7,14
2015/2/28 0:29,2.2,13,2.4,15,5.8,13
2015/2/28 0:30,2.2,13,2.2,15,5,7
2015/2/28 0:31,2.1,13,2.1,15,4.3,16
2015/2/28 0:32,2,13,2.1,15,3.6,3
2015/2/28 0:33,2.2,13,2.2,15,6.7,16
2015/2/28 0:34,2.6,13,2.6,15,7.6,13
2015/2/28 0:35,3,14,3,14,8.6,14
2015/2/28 0:36,3.2,14,3.2,14,6.4,13
2015/2/28 0:37,3.6,14,3.6,14,10.5,14
2015/2/28 0:38,4,14,4,14,10.7,15
2015/2/28 0:39,3.9,14,4.1,14,6.3,14
2015/2/28 0:40,4,15,4,14,5.7,15
2015/2/28 0:41,4.3,14,4.3,15,9.8,16
2015/2/28 0:42,4.4,14,4.4,14,6.5,15
2015/2/28 0:43,4.5,14,4.5,14,9.3,12
2015/2/28 0:44,4.5,14,4.5,14,11.4,15
2015/2/28 0:45,4.7,15,4.7,15,11,15
2015/2/28 0:46,4.8,15,4.8,15,8.7,14
2015/2/28 0:47,4.9,15,5,15,10.5,15
2015/2/28 0:48,4.9,15,4.9,15,10.3,16
2015/2/28 0:49,5.1,15,5.1,15,9.4,1
2015/2/28 0:50,5.2,15,5.3,15,10.1,15
2015/2/28 0:51,4.8,15,5.2,15,1.8,3
2015/2/28 0:52,4.7,15,4.8,15,5,16
2015/2/28 0:53,4.6,15,4.7,15,6,16
2015/2/28 0:54,4.7,15,4.7,15,8.5,15
2015/2/28 0:55,4.4,15,4.7,15,7.2,13
2015/2/28 0:56,4.2,15,4.3,15,5.2,1
2015/2/28 0:57,3.8,15,4.1,15,4.2,12
2015/2/28 0:58,3.4,15,3.7,15,4.3,12
2015/2/28 0:59,3.2,15,3.4,15,4.3,12
2015/2/28 1:00,3.1,15,3.1,15,5,16
2015/2/28 1:01,3.4,15,3.4,15,6.3,16
2015/2/28 1:02,3.6,15,3.6,15,5.7,15
2015/2/28 1:03,3.6,14,3.6,15,7.5,16
2015/2/28 1:04,3.3,14,3.6,15,6.4,14
2015/2/28 1:05,3.1,15,3.2,15,3.2,1
2015/2/28 1:06,2.9,14,3.1,15,3.9,13
2015/2/28 1:07,2.9,15,2.9,15,5.5,15
2015/2/28 1:08,2.9,15,3,15,5.8,16
2015/2/28 1:09,3,15,3,15,3.9,15
2015/2/28 1:10,2.9,15,3,15,3.6,1
2015/2/28 1:11,2.9,15,2.9,15,7.6,16
2015/2/28 1:12,2.8,15,3,14,7.7,16
2015/2/28 1:13,2.8,15,2.8,14,6.8,13
2015/2/28 1:14,3.1,15,3.1,14,8.4,15
2015/2/28 1:15,3.2,15,3.2,15,6.4,1
2015/2/28 1:16,3.3,15,3.3,15,6.3,15
2015/2/28 1:17,3.5,15,3.5,15,9.5,15
2015/2/28 1:18,3.8,15,3.8,15,9.8,16
2015/2/28 1:19,4,15,4,15,9,15
2015/2/28 1:20,4.2,15,4.2,15,9.2,16
2015/2/28 1:21,4.4,15,4.4,15,7.5,15
2015/2/28 1:22,4.5,15,4.5,15,10.9,16
2015/2/28 1:23,4.5,15,4.5,15,10.7,15
2015/2/28 1:24,4.6,16,4.6,15,11.1,16
2015/2/28 1:25,4.8,15,4.8,15,10,15
2015/2/28 1:26,5,16,5,15,8.3,15
2015/2/28 1:27,5,16,5.1,16,8.2,16
2015/2/28 1:28,4.9,16,5,16,11.3,16
2015/2/28 1:29,4.9,16,5,16,8.5,15
2015/2/28 1:30,5.1,16,5.1,16,9.2,16
2015/2/28 1:31,5.3,16,5.3,16,12.6,15
2015/2/28 1:32,5.3,16,5.4,16,10.5,16
2015/2/28 1:33,5.2,15,5.4,16,8.9,15
2015/2/28 1:34,4.9,15,5.1,16,5.1,12
2015/2/28 1:35,4.8,15,4.9,16,5.6,13
2015/2/28 1:36,4.5,15,4.7,16,6.5,15
2015/2/28 1:37,4.2,15,4.5,16,4.2,15
2015/2/28 1:38,4,14,4.2,16,4.4,16
2015/2/28 1:39,3.8,14,4.1,16,7.2,15
2015/2/28 1:40,3.4,14,3.8,16,3.9,11
2015/2/28 1:41,2.8,13,3.4,16,1.8,10
2015/2/28 1:42,2.4,13,2.8,16,1.5,5
2015/2/28 1:43,2.6,14,2.6,15,7.8,15
2015/2/28 1:44,2.6,14,2.6,15,8.2,15
2015/2/28 1:45,2.7,14,2.7,15,8.1,16
2015/2/28 1:46,2.8,14,2.8,15,7.1,15
2015/2/28 1:47,3,14,3,14,8.5,15
2015/2/28 1:48,3,14,3,14,6.8,15
2015/2/28 1:49,3.3,14,3.3,14,11.1,15
2015/2/28 1:50,3.5,14,3.5,15,7.4,14
2015/2/28 1:51,3.8,15,3.8,15,8.6,14
2015/2/28 1:52,4.2,15,4.2,15,7.6,14
2015/2/28 1:53,4.2,15,4.3,15,8.6,15
2015/2/28 1:54,4.6,15,4.6,15,10.2,16
2015/2/28 1:55,4.6,15,4.7,15,7.8,15
2015/2/28 1:56,4.5,15,4.6,15,6.7,15
2015/2/28 1:57,4.7,15,4.7,15,8.4,15
2015/2/28 1:58,4.9,15,5,15,10.1,15
2015/2/28 1:59,4.8,15,4.9,15,6.5,16
2015/2/28 2:00,4.7,15,4.7,15,6.4,15
2015/2/28 2:01,4.7,15,4.8,15,5.1,16
2015/2/28 2:02,4.5,15,4.7,15,4.7,15
2015/2/28 2:03,4.2,15,4.4,15,3,14
2015/2/28 2:04,3.8,15,4.1,15,4.7,15
2015/2/28 2:05,3.4,15,3.7,15,3.8,16
2015/2/28 2:06,3.3,15,3.4,15,3.7,12
2015/2/28 2:07,3,15,3.2,15,3.6,12
2015/2/28 2:08,2.7,15,3,15,5.2,16
2015/2/28 2:09,2.7,15,2.7,15,4.4,16
2015/2/28 2:10,2.4,15,2.7,15,2,16
2015/2/28 2:11,2.2,15,2.3,15,3.6,10
2015/2/28 2:12,2,15,2.2,15,2.2,9
2015/2/28 2:13,1.9,15,2,15,1.5,7
2015/2/28 2:14,1.8,14,1.9,15,4.5,12
2015/2/28 2:15,1.9,14,1.9,15,6.4,1
2015/2/28 2:16,2.1,15,2.1,15,8.2,2
2015/2/28 2:17,2.2,15,2.2,15,5.1,14
2015/2/28 2:18,2.2,14,2.2,15,3.8,12
2015/2/28 2:19,2.2,13,2.2,15,5.1,12
2015/2/28 2:20,2.4,13,2.4,13,3.8,13
2015/2/28 2:21,2.4,14,2.4,13,4.8,15
2015/2/28 2:22,2.6,14,2.6,14,3.3,14
2015/2/28 2:23,2.7,14,2.7,14,6.2,15
2015/2/28 2:24,2.8,14,2.8,14,5.6,16
2015/2/28 2:25,2.9,14,2.9,14,5.6,15
2015/2/28 2:26,2.9,14,2.9,14,6.7,15
2015/2/28 2:27,2.9,14,2.9,14,5.4,16
2015/2/28 2:28,2.9,14,2.9,14,3.3,13
2015/2/28 2:29,2.8,14,2.9,14,3.7,14
2015/2/28 2:30,2.8,14,2.8,14,5,12
2015/2/28 2:31,2.8,14,2.9,14,4.5,12
2015/2/28 2:32,2.8,14,2.8,14,3,16
2015/2/28 2:33,3,14,3,14,8.4,15
2015/2/28 2:34,3.2,14,3.2,14,8.7,15
2015/2/28 2:35,3.1,14,3.2,14,5.7,16
2015/2/28 2:36,3.2,14,3.2,14,5.8,15
2015/2/28 2:37,3.1,14,3.2,14,5.5,16
2015/2/28 2:38,3.3,14,3.3,14,6.9,12
2015/2/28 2:39,3.5,15,3.5,14,6.9,14
2015/2/28 2:40,3.7,15,3.7,15,5.5,15
2015/2/28 2:41,3.7,15,3.7,15,5.1,15
2015/2/28 2:42,3.9,15,3.9,15,5.6,16
2015/2/28 2:43,3.6,15,3.9,15,2.6,14
2015/2/28 2:44,3.2,15,3.5,15,2.1,8
2015/2/28 2:45,3,14,3.2,15,1.5,14
2015/2/28 2:46,2.6,15,3,15,1.3,1
2015/2/28 2:47,2.5,14,2.6,15,3.9,12
2015/2/28 2:48,2.3,14,2.5,15,3.9,13
2015/2/28 2:49,2.1,14,2.3,15,2.5,12
2015/2/28 2:50,1.8,13,2,15,2.6,13
2015/2/28 2:51,1.8,13,1.8,15,4.9,12
2015/2/28 2:52,1.7,12,1.8,15,3.1,13
2015/2/28 2:53,1.7,12,1.7,15,3.3,12
2015/2/28 2:54,1.8,12,1.8,15,3.7,11
2015/2/28 2:55,1.8,12,1.8,14,1.6,9
2015/2/28 2:56,1.8,12,1.8,14,1.4,14
2015/2/28 2:57,1.7,12,1.8,14,3.7,12
2015/2/28 2:58,1.6,12,1.7,14,1.9,16
2015/2/28 2:59,1.6,13,1.6,14,4.9,15
2015/2/28 3:00,1.7,13,1.7,13,3.8,13
2015/2/28 3:01,1.6,13,1.7,13,4.1,12
2015/2/28 3:02,1.7,14,1.7,12,5.6,16
2015/2/28 3:03,1.7,14,1.7,12,4.5,15
2015/2/28 3:04,1.8,14,1.8,12,3.7,14
2015/2/28 3:05,2,14,2,14,4.3,1
2015/2/28 3:06,2.2,15,2.2,15,4.5,16
2015/2/28 3:07,2.6,15,2.6,15,9.1,15
2015/2/28 3:08,2.9,15,2.9,15,7.7,15
2015/2/28 3:09,3,14,3,15,4.4,13
2015/2/28 3:10,3,14,3.1,14,4.2,15
2015/2/28 3:11,3.2,14,3.2,14,6.5,16
2015/2/28 3:12,3.2,14,3.2,14,4.8,12
2015/2/28 3:13,3.2,14,3.2,14,4.4,11
2015/2/28 3:14,3.2,14,3.2,14,4.3,11
2015/2/28 3:15,3.2,13,3.3,14,4.7,11
2015/2/28 3:16,3.1,13,3.2,14,3,11
2015/2/28 3:17,3,13,3.1,14,7.4,13
2015/2/28 3:18,3,13,3,14,6.7,13
2015/2/28 3:19,3,13,3,14,4.4,13
2015/2/28 3:20,2.9,12,3,14,3.7,15
2015/2/28 3:21,3,12,3,14,6.1,15
2015/2/28 3:22,2.9,13,3,14,5.6,16
2015/2/28 3:23,2.9,13,3,14,4.9,14
2015/2/28 3:24,2.9,13,2.9,14,3.5,15
2015/2/28 3:25,2.8,14,2.9,13,3.3,16
2015/2/28 3:26,3,14,3,13,4.8,15
2015/2/28 3:27,2.8,14,3,13,3.8,14
2015/2/28 3:28,2.4,14,2.8,13,1.6,14
2015/2/28 3:29,2.3,14,2.4,13,2.5,16
2015/2/28 3:30,2.2,14,2.2,12,2.9,15
2015/2/28 3:31,1.9,14,2.2,13,2.6,4
2015/2/28 3:32,1.8,14,1.9,13,4.2,16
2015/2/28 3:33,1.9,15,1.9,14,5.6,15
2015/2/28 3:34,1.7,14,1.9,14,2.1,13
2015/2/28 3:35,1.7,15,1.7,14,2.5,4
2015/2/28 3:36,1.5,15,1.7,14,1.8,4
2015/2/28 3:37,1.4,15,1.5,14,3.6,16
2015/2/28 3:38,1.6,15,1.6,14,4.8,16
2015/2/28 3:39,1.7,15,1.7,14,5.2,16
2015/2/28 3:40,1.7,15,1.8,14,2,15
2015/2/28 3:41,1.8,15,1.9,14,3.8,16
2015/2/28 3:42,2,15,2,15,3.8,14
2015/2/28 3:43,2.1,15,2.1,15,6.3,13
2015/2/28 3:44,2.3,15,2.3,15,4.9,15
2015/2/28 3:45,2.5,15,2.5,15,5.7,16
2015/2/28 3:46,2.7,14,2.7,14,4.4,16
2015/2/28 3:47,2.8,14,2.8,14,3.5,12
2015/2/28 3:48,2.8,14,2.8,14,4.2,13
2015/2/28 3:49,2.6,14,2.8,14,3.7,12
2015/2/28 3:50,2.7,13,2.7,14,4.3,15
2015/2/28 3:51,2.7,13,2.7,14,5.4,16
2015/2/28 3:52,2.7,13,2.7,14,7,15
2015/2/28 3:53,2.7,14,2.8,14,5.6,14
2015/2/28 3:54,2.8,14,2.8,14,4.1,14
2015/2/28 3:55,2.7,13,2.8,14,4.5,12
2015/2/28 3:56,2.7,13,2.7,14,3.2,14
2015/2/28 3:57,2.7,13,2.7,14,5,13
2015/2/28 3:58,2.6,13,2.7,14,3.7,12
2015/2/28 3:59,2.7,13,2.7,13,3.6,13
2015/2/28 4:00,2.8,13,2.9,13,4.2,10
2015/2/28 4:01,2.7,12,2.8,13,3,8
2015/2/28 4:02,2.5,12,2.7,13,1.9,10
2015/2/28 4:03,2.1,12,2.4,13,1.8,14
2015/2/28 4:04,2.1,12,2.1,13,4.3,13
2015/2/28 4:05,2,12,2,13,3.6,12
2015/2/28 4:06,1.9,11,2,13,2.7,10
2015/2/28 4:07,1.8,11,1.9,13,4.2,13
2015/2/28 4:08,1.9,12,1.9,13,3.7,14
2015/2/28 4:09,1.7,12,1.9,13,2.2,14
2015/2/28 4:10,1.7,12,1.8,13,4.1,14
2015/2/28 4:11,1.7,12,1.7,12,2.4,12
2015/2/28 4:12,1.8,12,1.8,12,2.6,10
2015/2/28 4:13,1.9,12,1.9,12,2.5,9
2015/2/28 4:14,1.8,11,1.9,12,3.1,8
2015/2/28 4:15,1.6,12,1.7,12,2,16
2015/2/28 4:16,1.7,12,1.7,11,2.4,15
2015/2/28 4:17,1.6,12,1.7,12,2.2,11
2015/2/28 4:18,1.5,12,1.6,12,2.7,12
2015/2/28 4:19,1.6,12,1.6,12,3.2,12
2015/2/28 4:20,1.5,12,1.6,12,2.9,11
2015/2/28 4:21,1.5,12,1.5,12,2.1,9
2015/2/28 4:22,1.4,12,1.5,12,2.6,12
2015/2/28 4:23,1.4,12,1.4,12,3.2,12
2015/2/28 4:24,1.7,12,1.7,11,5,12
2015/2/28 4:25,1.7,12,1.8,12,3.6,12
2015/2/28 4:26,1.7,12,1.7,12,1.3,12
2015/2/28 4:27,1.7,12,1.7,12,3.7,10
2015/2/28 4:28,1.6,12,1.7,12,0.8,13
2015/2/28 4:29,1.5,12,1.6,12,3.5,15
2015/2/28 4:30,1.7,13,1.7,12,4.8,15
2015/2/28 4:31,1.8,13,1.8,12,3.7,13
2015/2/28 4:32,1.9,13,1.9,13,3,12
2015/2/28 4:33,1.9,13,1.9,13,4.8,13
2015/2/28 4:34,1.6,14,1.9,13,1.8,14
2015/2/28 4:35,1.7,14,1.7,13,3.7,14
2015/2/28 4:36,1.9,14,1.9,13,3.9,13
2015/2/28 4:37,2,14,2,14,4.5,12
2015/2/28 4:38,2.3,14,2.3,14,5.5,12
2015/2/28 4:39,2.4,13,2.4,14,5.4,15
2015/2/28 4:40,2.4,13,2.4,14,4.3,12
2015/2/28 4:41,2.5,13,2.5,13,5.8,13
2015/2/28 4:42,2.5,13,2.5,13,3.3,13
2015/2/28 4:43,2.6,13,2.6,13,3.5,13
2015/2/28 4:44,2.6,13,2.6,13,2.7,15
2015/2/28 4:45,2.4,13,2.6,13,1.5,13
2015/2/28 4:46,2.3,13,2.4,13,2.5,10
2015/2/28 4:47,2.2,13,2.3,13,3,14
2015/2/28 4:48,2.1,13,2.1,13,3.3,11
2015/2/28 4:49,1.9,13,2.1,13,3.3,12
2015/2/28 4:50,1.9,13,1.9,13,3.7,13
2015/2/28 4:51,1.7,13,1.9,13,3,13
2015/2/28 4:52,1.6,13,1.7,13,1.8,12
2015/2/28 4:53,1.6,12,1.6,13,3.1,9
2015/2/28 4:54,1.6,12,1.6,13,2.1,11
2015/2/28 4:55,1.6,12,1.6,13,1.5,14
2015/2/28 4:56,1.7,12,1.7,13,2.7,12
2015/2/28 4:57,1.6,12,1.7,13,2.1,14
2015/2/28 4:58,1.6,12,1.7,13,3.8,12
2015/2/28 4:59,1.6,12,1.6,13,3.2,11
2015/2/28 5:00,1.5,12,1.6,13,3.5,10
2015/2/28 5:01,1.7,12,1.7,13,4.8,8
2015/2/28 5:02,1.7,12,1.7,12,4.2,10
2015/2/28 5:03,1.7,12,1.7,12,2.4,13
2015/2/28 5:04,1.7,12,1.7,12,3,15
2015/2/28 5:05,1.8,12,1.8,12,3.1,15
2015/2/28 5:06,1.8,13,1.8,12,2.7,16
2015/2/28 5:07,1.7,13,1.8,12,2.4,15
2015/2/28 5:08,1.6,13,1.7,12,2.7,16
2015/2/28 5:09,1.6,13,1.6,12,0.9,2
2015/2/28 5:10,1.5,14,1.5,12,1.4,8
2015/2/28 5:11,1.3,14,1.5,12,3.3,12
2015/2/28 5:12,1.4,14,1.4,12,3.5,12
2015/2/28 5:13,1.5,14,1.5,12,3.7,11
2015/2/28 5:14,1.7,13,1.7,12,4.4,11
2015/2/28 5:15,1.7,13,1.7,12,3.7,11
2015/2/28 5:16,1.7,12,1.7,13,2.2,12
2015/2/28 5:17,1.8,12,1.8,12,1.9,12
2015/2/28 5:18,1.8,12,1.8,12,2.2,11
2015/2/28 5:19,1.8,12,1.8,12,1,13
2015/2/28 5:20,1.8,12,1.8,12,0.6,11
2015/2/28 5:21,1.7,12,1.8,12,1.8,9
2015/2/28 5:22,1.6,11,1.7,12,3.2,10
2015/2/28 5:23,1.5,11,1.6,12,2,10
2015/2/28 5:24,1.4,11,1.5,12,3.2,10
2015/2/28 5:25,1.4,11,1.4,12,3.5,11
2015/2/28 5:26,1.4,11,1.4,12,3.5,9
2015/2/28 5:27,1.5,11,1.5,12,3.1,9
2015/2/28 5:28,1.6,10,1.6,12,3.7,10
2015/2/28 5:29,1.8,10,1.8,12,3.6,10
2015/2/28 5:30,1.9,10,1.9,10,3.2,9
2015/2/28 5:31,2,10,2,10,2.5,8
2015/2/28 5:32,1.9,10,2,10,2.5,9
2015/2/28 5:33,2,9,2,10,3.3,8
2015/2/28 5:34,1.9,9,2,10,3.1,9
2015/2/28 5:35,1.9,9,1.9,10,3,8
2015/2/28 5:36,1.9,9,1.9,10,4.2,9
2015/2/28 5:37,1.9,9,1.9,10,3,9
2015/2/28 5:38,1.8,9,1.9,10,3.1,10
2015/2/28 5:39,1.6,9,1.8,10,2,11
2015/2/28 5:40,1.5,9,1.6,10,1.6,6
2015/2/28 5:41,1.5,9,1.5,10,2.2,6
2015/2/28 5:42,1.6,9,1.6,9,2.1,6
2015/2/28 5:43,1.6,9,1.6,9,2.5,8
2015/2/28 5:44,1.6,9,1.6,9,3.3,8
2015/2/28 5:45,1.7,9,1.7,9,3.7,8
2015/2/28 5:46,1.6,9,1.7,9,3.2,9
2015/2/28 5:47,1.6,9,1.6,9,2.4,8
2015/2/28 5:48,1.6,9,1.6,9,2.6,10
2015/2/28 5:49,1.6,8,1.6,9,3.6,9
2015/2/28 5:50,1.8,9,1.8,9,4.4,10
2015/2/28 5:51,1.8,9,1.8,9,3.5,10
2015/2/28 5:52,1.8,9,1.8,9,3.3,8
2015/2/28 5:53,1.8,9,1.8,9,2.9,9
2015/2/28 5:54,1.6,9,1.8,9,1.8,7
2015/2/28 5:55,1.5,9,1.6,9,1.3,9
2015/2/28 5:56,1.4,9,1.5,9,1.1,1
2015/2/28 5:57,1.4,9,1.4,9,1.9,16
2015/2/28 5:58,1.3,9,1.4,9,1.8,16
2015/2/28 5:59,1.2,10,1.3,9,1,15
2015/2/28 6:00,1,11,1.2,9,1.4,12
2015/2/28 6:01,1.1,11,1.1,9,2.4,12
2015/2/28 6:02,1.1,12,1.1,9,2.2,12
2015/2/28 6:03,1,12,1.1,9,1.8,7
2015/2/28 6:04,1,12,1,9,2,9
2015/2/28 6:05,1.1,12,1.1,9,1.9,8
2015/2/28 6:06,1.1,11,1.1,9,1.3,10
2015/2/28 6:07,1.1,11,1.1,9,1.9,9
2015/2/28 6:08,1.1,10,1.1,9,1.8,9
2015/2/28 6:09,1.1,10,1.1,10,2.4,10
2015/2/28 6:10,1.2,10,1.2,10,3.2,10
2015/2/28 6:11,1.2,10,1.2,10,2.4,10
2015/2/28 6:12,1.2,10,1.2,10,1.8,10
2015/2/28 6:13,1.2,10,1.2,10,2,12
2015/2/28 6:14,1.2,10,1.2,10,2,16
2015/2/28 6:15,1.2,11,1.2,10,3.2,15
2015/2/28 6:16,1.3,10,1.3,11,2.4,4
2015/2/28 6:17,1.3,11,1.3,11,1.6,4
2015/2/28 6:18,1.2,12,1.3,11,0.8,1
2015/2/28 6:19,1.2,12,1.2,11,1.3,16
2015/2/28 6:20,1.1,13,1.2,11,1.3,5
2015/2/28 6:21,0.9,15,1,11,0.5,1
2015/2/28 6:22,0.8,16,0.9,11,0.5,7
2015/2/28 6:23,0.8,1,0.8,11,1.9,10
2015/2/28 6:24,0.9,3,0.9,11,2,10
2015/2/28 6:25,0.8,7,0.9,11,1.5,9
2015/2/28 6:26,0.8,12,0.8,10,1.8,14
2015/2/28 6:27,0.9,12,0.9,11,3.9,16
2015/2/28 6:28,1,12,1,12,2.6,16
2015/2/28 6:29,1.1,12,1.1,13,3.3,16
2015/2/28 6:30,1.3,14,1.3,14,3.7,16
2015/2/28 6:31,1.5,14,1.5,14,3.8,14
2015/2/28 6:32,1.7,14,1.7,14,4.1,15
2015/2/28 6:33,1.8,15,1.8,14,3.2,15
2015/2/28 6:34,1.8,15,1.8,14,2.6,14
2015/2/28 6:35,1.9,15,1.9,15,3,16
2015/2/28 6:36,2,16,2,15,2.5,16
2015/2/28 6:37,1.9,16,2,15,1.9,2
2015/2/28 6:38,1.9,16,2,15,2.7,3
2015/2/28 6:39,1.8,16,1.9,15,1.1,2
2015/2/28 6:40,1.7,16,1.8,15,1.3,4
2015/2/28 6:41,1.5,1,1.6,15,1.8,5
2015/2/28 6:42,1.4,1,1.5,15,1.9,6
2015/2/28 6:43,1.2,2,1.4,15,0.8,14
2015/2/28 6:44,1.1,2,1.2,15,0.9,14
2015/2/28 6:45,1,2,1,15,1.8,10
2015/2/28 6:46,1,3,1,16,2.6,9
2015/2/28 6:47,0.9,4,1,16,1.6,9
2015/2/28 6:48,0.9,6,0.9,16,3,9
2015/2/28 6:49,1,8,1,16,2.7,8
2015/2/28 6:50,1,8,1,16,2.7,8
2015/2/28 6:51,1.1,9,1.1,1,3.7,9
2015/2/28 6:52,1.2,10,1.2,2,3.1,9
2015/2/28 6:53,1.4,9,1.4,9,3.2,9
2015/2/28 6:54,1.5,9,1.5,9,2.5,8
2015/2/28 6:55,1.5,9,1.5,9,2.5,8
2015/2/28 6:56,1.4,9,1.5,9,1.5,12
2015/2/28 6:57,1.4,9,1.4,9,1.1,6
2015/2/28 6:58,1.3,9,1.4,9,0.5,8
2015/2/28 6:59,1.2,9,1.3,9,0.4,15
2015/2/28 7:00,1.1,9,1.2,9,1.4,6
2015/2/28 7:01,1.1,9,1.1,9,1.9,6
2015/2/28 7:02,1,9,1.1,9,2,9
2015/2/28 7:03,0.9,8,1,9,1.8,9
2015/2/28 7:04,0.8,9,0.9,9,1.6,8
2015/2/28 7:05,0.7,8,0.8,9,1.1,10
2015/2/28 7:06,0.7,8,0.7,9,1,8
2015/2/28 7:07,0.7,8,0.7,9,0.9,8
2015/2/28 7:08,0.7,8,0.7,9,1.3,7
2015/2/28 7:09,0.8,8,0.8,9,2,9
2015/2/28 7:10,0.8,8,0.8,9,1.6,9
2015/2/28 7:11,0.7,8,0.8,9,1.6,8
2015/2/28 7:12,0.8,8,0.8,8,2.2,5
2015/2/28 7:13,0.9,7,0.9,8,2.9,5
2015/2/28 7:14,1,7,1,7,2.7,5
2015/2/28 7:15,1.1,7,1.1,7,3.8,6
2015/2/28 7:16,1.3,7,1.3,7,4.1,4
2015/2/28 7:17,1.6,7,1.6,7,6.8,16
2015/2/28 7:18,1.8,6,1.8,6,3.5,1
2015/2/28 7:19,1.8,5,1.8,6,2.2,3
2015/2/28 7:20,1.8,5,1.9,5,1.9,16
2015/2/28 7:21,1.9,4,1.9,5,1.8,2
2015/2/28 7:22,1.9,3,1.9,5,2.4,2
2015/2/28 7:23,1.8,2,1.9,5,1.9,1
2015/2/28 7:24,1.6,2,1.7,5,1.9,7
2015/2/28 7:25,1.5,2,1.6,5,1.9,8
2015/2/28 7:26,1.4,2,1.4,5,1.9,8
2015/2/28 7:27,1.1,3,1.3,5,1.1,9
2015/2/28 7:28,1,4,1,5,2.7,7
2015/2/28 7:29,0.9,7,1,5,1.9,8
2015/2/28 7:30,1,8,1,4,3.3,8
2015/2/28 7:31,1.2,8,1.2,4,3.5,9
2015/2/28 7:32,1.2,8,1.2,3,2.4,9
2015/2/28 7:33,1.3,8,1.3,2,2,9
2015/2/28 7:34,1.4,8,1.4,2,3.5,8
2015/2/28 7:35,1.5,9,1.5,8,3.2,10
2015/2/28 7:36,1.5,9,1.5,8,2.7,9
2015/2/28 7:37,1.5,8,1.5,8,2.2,7
2015/2/28 7:38,1.5,8,1.5,8,1.8,4
2015/2/28 7:39,1.4,8,1.5,8,0.9,15
2015/2/28 7:40,1.2,8,1.4,8,0.9,8
2015/2/28 7:41,1.1,9,1.2,8,1.8,14
2015/2/28 7:42,1.1,10,1.1,8,2.4,13
2015/2/28 7:43,1.2,11,1.2,8,2.5,11
2015/2/28 7:44,1.2,11,1.2,8,4.5,9
2015/2/28 7:45,1.4,11,1.4,9,4.9,9
2015/2/28 7:46,1.5,11,1.5,9,3.7,9
2015/2/28 7:47,1.6,11,1.6,11,3.3,9
2015/2/28 7:48,1.7,11,1.7,11,2.9,9
2015/2/28 7:49,1.9,10,1.9,10,4.1,8
2015/2/28 7:50,2.1,10,2.1,10,3.6,8
2015/2/28 7:51,2.1,10,2.1,10,2,8
2015/2/28 7:52,2,9,2.1,10,1.6,8
2015/2/28 7:53,2,9,2,10,2,11
2015/2/28 7:54,1.9,9,2,10,2,13
2015/2/28 7:55,1.8,10,1.9,10,2.5,13
2015/2/28 7:56,1.8,10,1.8,10,3.8,10
2015/2/28 7:57,1.8,10,1.9,10,4.1,10
2015/2/28 7:58,1.9,10,1.9,10,3.5,10
2015/2/28 7:59,1.8,10,1.9,10,3,11
2015/2/28 8:00,1.7,11,1.8,10,2,11
2015/2/28 8:01,1.7,11,1.7,10,1.6,13
2015/2/28 8:02,1.7,11,1.7,9,2.5,13
2015/2/28 8:03,1.7,12,1.7,9,2.2,13
2015/2/28 8:04,1.7,12,1.8,9,2.4,13
2015/2/28 8:05,1.6,12,1.7,10,1.6,16
2015/2/28 8:06,1.4,12,1.6,10,1.3,15
2015/2/28 8:07,1.2,13,1.4,10,0.6,6
2015/2/28 8:08,1,13,1.2,10,0.5,6
2015/2/28 8:09,0.9,13,1,10,0.9,6
2015/2/28 8:10,0.8,13,0.9,12,0.5,6
2015/2/28 8:11,0.7,9,0.8,12,0.1,6
2015/2/28 8:12,0.5,6,0.7,12,0.1,6
2015/2/28 8:13,0.4,6,0.5,12,0.8,7
2015/2/28 8:14,0.3,6,0.4,12,0.4,11
2015/2/28 8:15,0.2,7,0.3,12,0.8,11
2015/2/28 8:16,0.3,7,0.3,12,1.4,12
2015/2/28 8:17,0.4,8,0.4,13,1.4,11
2015/2/28 8:18,0.4,8,0.4,13,1,10
2015/2/28 8:19,0.4,9,0.4,13,1.8,8
2015/2/28 8:20,0.5,9,0.5,13,1.5,9
2015/2/28 8:21,0.6,9,0.6,8,1.4,8
2015/2/28 8:22,0.7,10,0.7,10,1.3,8
2015/2/28 8:23,0.7,10,0.7,10,0.8,14
2015/2/28 8:24,0.8,10,0.8,10,2.2,10
2015/2/28 8:25,0.9,10,0.9,10,2.6,10
2015/2/28 8:26,1,10,1,10,3.2,10
2015/2/28 8:27,1,10,1,10,3.2,10
2015/2/28 8:28,1.1,10,1.1,10,2.7,10
2015/2/28 8:29,1.2,10,1.2,10,3.2,10
2015/2/28 8:30,1.2,10,1.2,10,2.9,10
2015/2/28 8:31,1.2,11,1.2,10,1.4,14
2015/2/28 8:32,1.3,11,1.3,11,3,16
2015/2/28 8:33,1.5,11,1.5,11,2.7,14
2015/2/28 8:34,1.4,12,1.5,11,1.9,13
2015/2/28 8:35,1.4,12,1.4,11,1.8,10
2015/2/28 8:36,1.4,12,1.4,11,2.9,11
2015/2/28 8:37,1.5,12,1.5,11,3,10
2015/2/28 8:38,1.6,12,1.6,12,3.5,11
2015/2/28 8:39,1.7,12,1.7,12,3.6,10
2015/2/28 8:40,1.8,12,1.8,12,3.3,10
2015/2/28 8:41,2,12,2,12,4.7,10
2015/2/28 8:42,2,11,2,12,3.9,10
2015/2/28 8:43,1.9,11,2,12,2.7,9
2015/2/28 8:44,1.9,10,1.9,12,1,8
2015/2/28 8:45,1.9,10,1.9,12,2.7,8
2015/2/28 8:46,1.8,10,1.9,12,2.1,9
2015/2/28 8:47,1.7,10,1.8,12,1,1
2015/2/28 8:48,1.5,10,1.6,12,1.4,9
2015/2/28 8:49,1.3,10,1.5,12,2,8
2015/2/28 8:50,1.1,10,1.3,12,1.9,9
2015/2/28 8:51,0.9,10,1.1,11,2.2,10
2015/2/28 8:52,0.9,10,0.9,11,2,10
2015/2/28 8:53,0.9,10,0.9,11,1.5,10
2015/2/28 8:54,0.9,10,0.9,10,1.1,10
2015/2/28 8:55,0.9,10,0.9,10,2.5,8
2015/2/28 8:56,0.9,10,0.9,10,2.1,9
2015/2/28 8:57,1,10,1,10,3.5,10
2015/2/28 8:58,1,10,1,10,1.3,1
2015/2/28 8:59,0.9,10,1,10,0.9,15
2015/2/28 9:00,0.9,10,1,10,1.4,12
2015/2/28 9:01,0.9,11,0.9,10,1.3,13
2015/2/28 9:02,0.9,11,0.9,10,2.4,15
2015/2/28 9:03,0.9,12,0.9,10,2.5,15
2015/2/28 9:04,1,12,1,10,2.7,15
2015/2/28 9:05,0.9,13,1,10,1,15
2015/2/28 9:06,0.9,13,0.9,10,0.9,15
2015/2/28 9:07,0.8,13,0.8,10,2,6
2015/2/28 9:08,0.9,13,0.9,10,2,6
2015/2/28 9:09,0.9,12,0.9,10,1.9,8
2015/2/28 9:10,0.9,11,0.9,12,1.1,7
2015/2/28 9:11,0.9,10,0.9,12,1.6,7
2015/2/28 9:12,0.9,9,0.9,12,2.7,5
2015/2/28 9:13,1,7,1,12,3.8,5
2015/2/28 9:14,1.1,7,1.1,7,3.7,5
2015/2/28 9:15,1.2,6,1.2,6,3.6,4
2015/2/28 9:16,1.4,6,1.4,6,3.7,5
2015/2/28 9:17,1.5,6,1.5,6,3.8,6
2015/2/28 9:18,1.6,6,1.6,6,4.3,6
2015/2/28 9:19,1.6,6,1.6,6,2.6,4
2015/2/28 9:20,1.6,5,1.6,6,1.5,1
2015/2/28 9:21,1.7,5,1.7,5,3.5,1
2015/2/28 9:22,1.8,4,1.8,4,5.8,1
2015/2/28 9:23,1.9,4,1.9,4,5.1,1
2015/2/28 9:24,2,3,2,4,5.1,16
2015/2/28 9:25,2,2,2,4,2.1,16
2015/2/28 9:26,2,2,2,4,2.6,15
2015/2/28 9:27,2,1,2,4,5.8,16
2015/2/28 9:28,2.4,1,2.4,1,8.6,1
2015/2/28 9:29,2.8,1,2.8,1,7.6,2
2015/2/28 9:30,3.2,1,3.2,1,8.2,2
2015/2/28 9:31,3.4,1,3.4,1,6.8,3
2015/2/28 9:32,3.5,1,3.5,1,5.6,3
2015/2/28 9:33,3.4,1,3.4,1,4.8,16
2015/2/28 9:34,3.3,1,3.4,1,3.8,3
2015/2/28 9:35,3.4,1,3.4,1,5.2,15
2015/2/28 9:36,3.5,1,3.5,1,3.3,14
2015/2/28 9:37,3.4,1,3.5,1,3.5,13
2015/2/28 9:38,3,1,3.4,1,2.5,16
2015/2/28 9:39,2.6,1,2.9,1,3,16
2015/2/28 9:40,2.4,16,2.6,1,4.3,1
2015/2/28 9:41,2.3,16,2.3,1,5.4,2
2015/2/28 9:42,2.4,16,2.4,1,7,16
2015/2/28 9:43,2.5,16,2.5,1,5.6,2
2015/2/28 9:44,2.8,16,2.8,1,8.5,16
2015/2/28 9:45,2.8,16,2.9,1,6.5,16
2015/2/28 9:46,2.8,16,2.9,1,4.4,2
2015/2/28 9:47,2.9,1,2.9,1,3.6,16
2015/2/28 9:48,2.9,1,2.9,1,2.4,16
2015/2/28 9:49,3,1,3,1,4.7,1
2015/2/28 9:50,3.1,1,3.1,1,4.5,16
2015/2/28 9:51,2.9,1,3.1,1,2.6,2
2015/2/28 9:52,2.8,1,2.8,1,7.4,2
2015/2/28 9:53,2.9,1,2.9,1,6.8,1
2015/2/28 9:54,2.9,1,2.9,1,7.5,16
2015/2/28 9:55,3,1,3,1,6.5,16
2015/2/28 9:56,3.1,1,3.1,1,6.2,5
2015/2/28 9:57,3.2,1,3.2,1,5,3
2015/2/28 9:58,3.4,2,3.4,2,5.4,3
2015/2/28 9:59,3.6,2,3.6,2,7.8,2
2015/2/28 10:00,3.7,2,3.7,2,7.4,1
2015/2/28 10:01,3.8,2,3.8,2,4.5,2
2015/2/28 10:02,3.6,2,3.8,2,3.1,2
2015/2/28 10:03,3.3,2,3.6,2,1.6,3
2015/2/28 10:04,3.2,3,3.3,2,7.6,2
2015/2/28 10:05,3.3,3,3.3,2,8.7,2
2015/2/28 10:06,3.6,2,3.6,2,9.8,2
2015/2/28 10:07,3.7,2,3.7,2,9.4,16
2015/2/28 10:08,3.7,2,3.7,2,6.4,1
2015/2/28 10:09,3.6,2,3.7,2,5.5,2
2015/2/28 10:10,3.7,2,3.7,2,9,15
2015/2/28 10:11,3.8,1,3.8,2,8.4,1
2015/2/28 10:12,4,1,4,1,7.2,1
2015/2/28 10:13,4.4,1,4.4,1,9.9,1
2015/2/28 10:14,4.5,1,4.5,1,6.8,1
2015/2/28 10:15,4.4,1,4.5,1,5.8,2
2015/2/28 10:16,4.2,1,4.3,1,7.6,3
2015/2/28 10:17,4.3,1,4.3,1,6.9,3
2015/2/28 10:18,4.3,2,4.3,1,6.2,3
2015/2/28 10:19,4.2,2,4.3,1,4.1,3
2015/2/28 10:20,3.8,2,4.1,1,3.1,4
2015/2/28 10:21,3.6,2,3.8,1,2.2,2
2015/2/28 10:22,3.3,2,3.6,1,1.3,16
2015/2/28 10:23,3,2,3.3,1,4.4,4
2015/2/28 10:24,2.9,3,3,1,6.8,2
2015/2/28 10:25,2.8,3,2.9,1,5.2,3
2015/2/28 10:26,2.7,3,2.8,1,4.3,3
2015/2/28 10:27,2.4,3,2.7,1,4.9,4
2015/2/28 10:28,2.1,3,2.4,2,3.7,3
2015/2/28 10:29,2.1,3,2.1,2,2.6,6
2015/2/28 10:30,2,3,2.1,2,1.9,6
2015/2/28 10:31,1.9,3,2,2,2.7,15
2015/2/28 10:32,2.1,3,2.1,2,3.3,16
2015/2/28 10:33,2,3,2.1,2,2.7,15
2015/2/28 10:34,1.8,2,2,3,3.7,13
2015/2/28 10:35,1.6,2,1.8,3,1.9,12
2015/2/28 10:36,1.5,1,1.6,3,2.9,16
2015/2/28 10:37,1.3,15,1.5,3,2.7,14
2015/2/28 10:38,1.2,15,1.3,3,0.5,16
2015/2/28 10:39,1.1,15,1.2,3,1.4,4
2015/2/28 10:40,1.2,16,1.2,3,3.6,3
2015/2/28 10:41,1.3,16,1.3,3,4.1,3
2015/2/28 10:42,1.3,16,1.3,3,2.7,4
2015/2/28 10:43,1.4,1,1.4,3,3.8,4
2015/2/28 10:44,1.4,2,1.4,2,5.1,16
2015/2/28 10:45,1.5,2,1.5,2,4.7,2
2015/2/28 10:46,1.7,2,1.7,2,5.7,2
2015/2/28 10:47,2,2,2,2,6.5,3
2015/2/28 10:48,2.3,3,2.3,3,5.5,3
2015/2/28 10:49,2.5,2,2.5,3,4.7,3
2015/2/28 10:50,2.7,3,2.7,3,5.4,2
2015/2/28 10:51,2.9,2,2.9,2,6.3,2
2015/2/28 10:52,3.1,2,3.1,2,4.8,2
2015/2/28 10:53,3.2,2,3.2,2,6.2,2
2015/2/28 10:54,3.3,2,3.3,2,5,2
2015/2/28 10:55,3.3,2,3.3,2,4.4,3
2015/2/28 10:56,3.1,2,3.3,2,3.3,5
2015/2/28 10:57,3,2,3.1,2,3.3,4
2015/2/28 10:58,2.8,3,2.9,2,3.7,4
2015/2/28 10:59,2.9,3,2.9,2,5,3
2015/2/28 11:00,2.8,3,2.9,2,4.4,3
2015/2/28 11:01,2.7,3,2.8,2,5,3
2015/2/28 11:02,2.7,3,2.7,2,4.8,4
2015/2/28 11:03,2.6,3,2.7,2,4.5,5
2015/2/28 11:04,2.5,4,2.6,2,3.9,4
2015/2/28 11:05,2.7,4,2.7,2,5,2
2015/2/28 11:06,2.8,3,2.8,2,5.7,2
2015/2/28 11:07,2.9,3,2.9,3,5.4,3
2015/2/28 11:08,2.9,3,2.9,3,3.5,2
2015/2/28 11:09,2.9,3,2.9,3,4.8,4
2015/2/28 11:10,3,3,3,3,7,2
2015/2/28 11:11,3.1,3,3.1,3,7.2,16